Weather History for Watsonville, CA

Change the Weather History Date:

Saturday, April 5, 2014

  Actual Average Record
Temperature  
Mean Temperature 55 °F 54 °F  
Max Temperature 67 °F 65 °F 75 °F (2005)
Min Temperature 42 °F 44 °F 37 °F (2003)
Degree Days  
Heating Degree Days 10    
Month to date heating degree days 63  
Since 1 July heating degree days 2045  
Cooling Degree Days 0    
Month to date cooling degree days 0  
Year to date cooling degree days 0  
Growing Degree Days 4 (Base 50)    
Moisture  
Dew Point 46 °F    
Average Humidity 72    
Maximum Humidity 96    
Minimum Humidity 48    
Precipitation  
Precipitation 0.00 in - 1.79 in (1980)
Month to date precipitation 0.73  
Year to date precipitation 7.77  
Since 1 July precipitation 8.84  
Sea Level Pressure  
Sea Level Pressure 30.13 in    
Wind  
Wind Speed 3 mph (West)    
Max Wind Speed 12 mph    
Max Gust Speed 21 mph    
Visibility 10 miles    
Events      
T = Trace of Precipitation, MM = Missing Value Source: NWS Daily Summary

Daily Weather History Graph

Daily Weather History Graph

Search for Another Location

Airport:

Trip Planner

Search our weather history database for the weather conditions in past years. The results will help you decide how hot, cold, wet, or windy it might be!

Date:

Astronomy

Apr. 05, 2014 Rise Set
Actual Time 6:46 AM PDT 7:33 PM PDT
Civil Twilight 6:20 AM PDT 7:59 PM PDT
Nautical Twilight 5:49 AM PDT 8:30 PM PDT
Astronomical Twilight 5:17 AM PDT 9:02 PM PDT
Moon 11:04 AM PDT (4/5) 12:42 AM PDT (4/5)
Length of Visible Light 13h 38m
Length of Day
12h 46m
Waxing Crescent, 35% of the Moon is Illuminated
Apr 5
Waxing Crescent
Apr 7
First Quarter
Apr 15
Full
Apr 22
Last Quarter
Apr 28
New

Hourly Weather History & Observations

Time (PDT) Temp. Windchill Dew Point Humidity Pressure Visibility Wind Dir Wind Speed Gust Speed Precip Events Conditions
12:53 AM 45.0 °F 42.6 °F 42.1 °F 90% 30.07 in 10.0 mi WNW 4.6 mph - N/A   Clear
1:53 AM 45.0 °F 43.5 °F 42.1 °F 90% 30.06 in 10.0 mi WNW 3.5 mph - N/A   Partly Cloudy
2:53 AM 45.0 °F 43.5 °F 42.1 °F 90% 30.07 in 10.0 mi NNW 3.5 mph - N/A   Clear
3:53 AM 44.1 °F - 42.1 °F 93% 30.07 in 10.0 mi Calm Calm - N/A   Clear
4:53 AM 43.0 °F - 41.0 °F 93% 30.07 in 10.0 mi Calm Calm - N/A   Clear
5:53 AM 43.0 °F 41.3 °F 39.9 °F 89% 30.08 in 10.0 mi NW 3.5 mph - N/A   Clear
6:53 AM 43.0 °F 41.3 °F 41.0 °F 93% 30.10 in 10.0 mi NW 3.5 mph - N/A   Clear
7:53 AM 45.0 °F - 43.0 °F 93% 30.12 in 10.0 mi Calm Calm - N/A   Clear
8:53 AM 51.1 °F - 46.0 °F 83% 30.14 in 10.0 mi Calm Calm - N/A   Clear
9:53 AM 54.0 °F - 46.0 °F 75% 30.16 in 10.0 mi Calm Calm - N/A   Clear
10:53 AM 57.9 °F - 48.0 °F 70% 30.17 in 10.0 mi Variable 3.5 mph - N/A   Clear
11:53 AM 60.1 °F - 48.9 °F 67% 30.16 in 10.0 mi Variable 3.5 mph - N/A   Clear
12:53 PM 61.0 °F - 48.0 °F 62% 30.16 in 10.0 mi SSW 8.1 mph - N/A   Clear
1:53 PM 62.1 °F - 50.0 °F 65% 30.15 in 10.0 mi South 8.1 mph - N/A   Clear
2:53 PM 64.0 °F - 48.0 °F 56% 30.14 in 10.0 mi SSE 5.8 mph - N/A   Clear
3:53 PM 64.9 °F - 46.9 °F 52% 30.13 in 10.0 mi SSW 3.5 mph - N/A   Clear
4:53 PM 66.0 °F - 46.0 °F 48% 30.12 in 10.0 mi Calm Calm - N/A   Clear
5:53 PM 66.0 °F - 46.9 °F 50% 30.13 in 10.0 mi SSE 4.6 mph - N/A   Clear
6:53 PM 64.9 °F - 46.9 °F 52% 30.13 in 10.0 mi Calm Calm - N/A   Clear
7:53 PM 59.0 °F - 50.0 °F 72% 30.14 in 10.0 mi ENE 6.9 mph - N/A   Clear
8:53 PM 55.9 °F - 48.9 °F 77% 30.18 in 10.0 mi East 4.6 mph - N/A   Clear
9:53 PM 54.0 °F - 48.0 °F 80% 30.19 in 10.0 mi Calm Calm - N/A   Clear
10:53 PM 52.0 °F - 46.9 °F 83% 30.20 in 10.0 mi Calm Calm - N/A   Clear
11:53 PM 50.0 °F - 46.0 °F 86% 30.22 in 10.0 mi NW 3.5 mph - N/A   Clear